,,PA_Meas_PMT16A,,PR_Meas_QMR101_102,,RH_Meas_QMH101,,SR_Meas_QMS101,,TA_Meas_QMH101,,GenWind,,GenWind,
time,status,PA,status,PR,status,RH,status,SR,status,TA,status,DirAvg,status,SpdAvg,
2014-03-01, 07:19:04,VALID,917.939,VALID,0,VALID,90.9092,VALID,55.762,VALID,19.5288,VALID,159,VALID,0.761719,
2014-03-01, 07:20:04,VALID,917.967,VALID,0,VALID,90.955,VALID,57.0513,VALID,19.5288,VALID,160,VALID,0.625781,
2014-03-01, 07:21:04,VALID,917.974,VALID,0,VALID,90.9778,VALID,58.2331,VALID,19.4883,VALID,146,VALID,1.30508,
2014-03-01, 07:22:04,VALID,918.005,VALID,0,VALID,91.077,VALID,59.3075,VALID,19.4688,VALID,160,VALID,0.694141,
2014-03-01, 07:23:04,VALID,918.05,VALID,0,VALID,91.1303,VALID,60.5968,VALID,19.4703,VALID,163,VALID,1.83164,
2014-03-01, 07:24:04,VALID,918.052,VALID,0,VALID,91.2599,VALID,61.6712,VALID,19.4508,VALID,184,VALID,0.862109,
2014-03-01, 07:25:04,VALID,918.054,VALID,0,VALID,91.3057,VALID,62.7456,VALID,19.4508,VALID,188,VALID,0.957422,
2014-03-01, 07:26:04,VALID,918.075,VALID,0,VALID,91.3819,VALID,63.82,VALID,19.4493,VALID,187,VALID,1.11484,
2014-03-01, 07:27:04,VALID,918.105,VALID,0,VALID,91.42,VALID,64.787,VALID,19.4703,VALID,175,VALID,1.15078,
2014-03-01, 07:28:04,VALID,918.092,VALID,0,VALID,91.4734,VALID,65.6465,VALID,19.4898,VALID,194,VALID,1.12266,
2014-03-01, 07:29:04,VALID,918.085,VALID,0,VALID,91.5115,VALID,66.721,VALID,19.4703,VALID,178,VALID,0.904688,
2014-03-01, 07:30:04,VALID,918.064,VALID,0,VALID,91.5725,VALID,67.6879,VALID,19.4688,VALID,166,VALID,1.56797,
2014-03-01, 07:31:04,VALID,918.085,VALID,0,VALID,91.42,VALID,68.8698,VALID,19.4688,VALID,164,VALID,2.03789,
2014-03-01, 07:32:04,VALID,918.085,VALID,0,VALID,91.3361,VALID,69.9442,VALID,19.5483,VALID,159,VALID,0.860156,
2014-03-01, 07:33:04,VALID,918.102,VALID,0,VALID,91.2675,VALID,71.3409,VALID,19.5678,VALID,160,VALID,1.4168,
2014-03-01, 07:34:04,VALID,918.119,VALID,0,VALID,91.077,VALID,72.6302,VALID,19.6068,VALID,172,VALID,0.729297,
2014-03-01, 07:35:04,VALID,918.114,VALID,0,VALID,90.9702,VALID,74.2418,VALID,19.6248,VALID,172,VALID,0.642187,
2014-03-01, 07:36:04,VALID,918.118,VALID,0,VALID,90.7339,VALID,75.746,VALID,19.6848,VALID,167,VALID,1.04297,
2014-03-01, 07:37:04,VALID,918.153,VALID,0,VALID,90.4442,VALID,77.4651,VALID,19.7433,VALID,153,VALID,0.989453,
2014-03-01, 07:38:04,VALID,918.188,VALID,0,VALID,90.3375,VALID,79.1841,VALID,19.7808,VALID,174,VALID,0.423438,
2014-03-01, 07:39:04,VALID,918.198,VALID,0,VALID,90.063,VALID,81.0106,VALID,19.8213,VALID,151,VALID,0.849609,
2014-03-01, 07:40:04,VALID,918.209,VALID,0,VALID,89.9411,VALID,82.7297,VALID,19.8408,VALID,163,VALID,0.590234,
2014-03-01, 07:41:04,VALID,918.273,VALID,0,VALID,89.8877,VALID,84.4487,VALID,19.8588,VALID,158,VALID,0.798828,
2014-03-01, 07:42:04,VALID,918.265,VALID,0,VALID,89.8496,VALID,86.1678,VALID,19.8993,VALID,142,VALID,0.6125,
2014-03-01, 07:43:04,VALID,918.27,VALID,0,VALID,89.4684,VALID,87.8869,VALID,19.8978,VALID,131,VALID,1.14141,
2014-03-01, 07:44:04,VALID,918.344,VALID,0,VALID,89.2473,VALID,89.391,VALID,19.9968,VALID,148,VALID,1.04727,
2014-03-01, 07:45:04,VALID,918.329,VALID,0,VALID,89.0644,VALID,90.8952,VALID,20.0148,VALID,153,VALID,1.16445,
2014-03-01, 07:46:04,VALID,918.328,VALID,0,VALID,89.0263,VALID,92.3994,VALID,20.0343,VALID,156,VALID,0.296875,
2014-03-01, 07:47:04,VALID,918.347,VALID,0,VALID,88.8662,VALID,94.2259,VALID,20.0944,VALID,132,VALID,1.08672,
2014-03-01, 07:48:04,VALID,918.411,VALID,0,VALID,88.7137,VALID,96.0524,VALID,20.0944,VALID,138,VALID,1.37383,
2014-03-01, 07:49:04,VALID,918.41,VALID,0,VALID,88.7975,VALID,97.9863,VALID,20.0928,VALID,141,VALID,0.605859,
2014-03-01, 07:50:04,VALID,918.423,VALID,0,VALID,88.7975,VALID,100.135,VALID,20.1123,VALID,134,VALID,0.555859,
2014-03-01, 07:51:04,VALID,918.415,VALID,0,VALID,88.7899,VALID,102.177,VALID,20.1318,VALID,164,VALID,0.816797,
2014-03-01, 07:52:04,VALID,918.448,VALID,0,VALID,88.9348,VALID,104.54,VALID,20.1724,VALID,166,VALID,0.59375,
2014-03-01, 07:53:04,VALID,918.41,VALID,0,VALID,88.5917,VALID,107.119,VALID,20.1919,VALID,172,VALID,0.735937,
2014-03-01, 07:54:04,VALID,918.414,VALID,0,VALID,88.7671,VALID,110.02,VALID,20.2114,VALID,174,VALID,0.780859,
2014-03-01, 07:55:04,VALID,918.422,VALID,0,VALID,88.5841,VALID,113.028,VALID,20.2098,VALID,169,VALID,0.815234,
2014-03-01, 07:56:04,VALID,918.419,VALID,0,VALID,88.5307,VALID,116.144,VALID,20.2293,VALID,181,VALID,1.07891,
2014-03-01, 07:57:04,VALID,918.415,VALID,0,VALID,88.424,VALID,119.582,VALID,20.2699,VALID,160,VALID,1.14023,
2014-03-01, 07:58:04,VALID,918.429,VALID,0,VALID,88.3554,VALID,122.805,VALID,20.2489,VALID,179,VALID,1.49961,
2014-03-01, 07:59:04,VALID,918.395,VALID,0,VALID,88.5688,VALID,126.028,VALID,20.2684,VALID,188,VALID,0.647656,
2014-03-01, 08:00:04,VALID,918.43,VALID,0,VALID,88.7213,VALID,128.929,VALID,20.3074,VALID,176,VALID,0.674219,
2014-03-01, 08:01:04,VALID,918.41,VALID,0,VALID,88.6146,VALID,132.367,VALID,20.3269,VALID,161,VALID,0.609375,
2014-03-01, 08:02:04,VALID,918.404,VALID,0,VALID,88.2334,VALID,134.839,VALID,20.3464,VALID,159,VALID,0.621094,
2014-03-01, 08:03:04,VALID,918.416,VALID,0,VALID,88.3325,VALID,137.31,VALID,20.3659,VALID,165,VALID,1.33086,
2014-03-01, 08:04:04,VALID,918.391,VALID,0,VALID,88.2105,VALID,139.459,VALID,20.4244,VALID,145,VALID,0.985547,
2014-03-01, 08:05:04,VALID,918.392,VALID,0,VALID,87.8294,VALID,141.393,VALID,20.4423,VALID,152,VALID,0.840625,
2014-03-01, 08:06:04,VALID,918.378,VALID,0,VALID,86.8231,VALID,144.186,VALID,20.5219,VALID,143,VALID,1.64336,
2014-03-01, 08:07:04,VALID,918.399,VALID,0,VALID,86.3885,VALID,146.335,VALID,20.6795,VALID,148,VALID,1.39688,
2014-03-01, 08:08:04,VALID,918.366,VALID,0,VALID,86.2208,VALID,147.946,VALID,20.7365,VALID,166,VALID,1.50039,
2014-03-01, 08:09:04,VALID,918.393,VALID,0,VALID,85.4966,VALID,150.74,VALID,20.7544,VALID,160,VALID,2.1207,
2014-03-01, 08:10:04,VALID,918.425,VALID,0,VALID,85.3823,VALID,155.145,VALID,20.8129,VALID,148,VALID,1.82773,
2014-03-01, 08:11:04,VALID,918.436,VALID,0,VALID,85.5271,VALID,158.905,VALID,20.873,VALID,146,VALID,1.50156,
2014-03-01, 08:12:04,VALID,918.427,VALID,0,VALID,85.2603,VALID,161.806,VALID,20.9316,VALID,153,VALID,1.45313,
2014-03-01, 08:13:04,VALID,918.451,VALID,0,VALID,85.1078,VALID,163.311,VALID,20.9706,VALID,150,VALID,1.31992,
2014-03-01, 08:14:04,VALID,918.439,VALID,0,VALID,84.7648,VALID,163.848,VALID,20.9901,VALID,146,VALID,1.58867,
2014-03-01, 08:15:04,VALID,918.486,VALID,0,VALID,84.9096,VALID,163.633,VALID,20.9901,VALID,170,VALID,1.25625,
2014-03-01, 08:16:04,VALID,918.465,VALID,0,VALID,84.6885,VALID,164.17,VALID,21.0112,VALID,129,VALID,1.61563,
2014-03-01, 08:17:04,VALID,918.443,VALID,0,VALID,84.6123,VALID,165.889,VALID,20.9674,VALID,144,VALID,1.74336,
2014-03-01, 08:18:04,VALID,918.464,VALID,0,VALID,84.9096,VALID,167.608,VALID,21.0502,VALID,150,VALID,1.29336,
2014-03-01, 08:19:04,VALID,918.456,VALID,0,VALID,84.8562,VALID,170.617,VALID,21.047,VALID,131,VALID,1.26875,
2014-03-01, 08:20:04,VALID,918.46,VALID,0,VALID,85.6033,VALID,173.84,VALID,21.1071,VALID,125,VALID,0.983203,
2014-03-01, 08:21:04,VALID,918.442,VALID,0,VALID,85.0621,VALID,175.666,VALID,21.1461,VALID,130,VALID,1.29961,
2014-03-01, 08:22:05,VALID,918.467,VALID,0,VALID,84.2235,VALID,177.923,VALID,21.164,VALID,110,VALID,1.85664,
2014-03-01, 08:23:04,VALID,918.441,VALID,0,VALID,84.2616,VALID,180.716,VALID,21.2453,VALID,85,VALID,1.56055,
2014-03-01, 08:24:04,VALID,918.441,VALID,0,VALID,84.3302,VALID,180.931,VALID,21.2811,VALID,123,VALID,1.65469,
2014-03-01, 08:25:04,VALID,918.431,VALID,0,VALID,83.0876,VALID,179.964,VALID,21.3412,VALID,130,VALID,2.09531,
2014-03-01, 08:26:04,VALID,918.469,VALID,0,VALID,83.019,VALID,180.609,VALID,21.3998,VALID,119,VALID,1.5832,
2014-03-01, 08:27:04,VALID,918.462,VALID,0,VALID,83.1791,VALID,182.543,VALID,21.4177,VALID,141,VALID,0.76875,
2014-03-01, 08:28:04,VALID,918.51,VALID,0,VALID,83.2096,VALID,184.799,VALID,21.4762,VALID,141,VALID,1.05859,
2014-03-01, 08:29:04,VALID,918.515,VALID,0,VALID,82.8818,VALID,185.981,VALID,21.5559,VALID,169,VALID,1.44336,
2014-03-01, 08:30:04,VALID,918.539,VALID,0,VALID,82.9428,VALID,187.592,VALID,21.5542,VALID,177,VALID,1.06289,
2014-03-01, 08:31:04,VALID,918.546,VALID,0,VALID,82.0127,VALID,190.063,VALID,21.5542,VALID,158,VALID,1.65352,
2014-03-01, 08:32:04,VALID,918.526,VALID,0,VALID,82.3634,VALID,195.865,VALID,21.4762,VALID,161,VALID,1.05742,
2014-03-01, 08:33:04,VALID,918.546,VALID,0,VALID,82.5159,VALID,199.733,VALID,21.4567,VALID,166,VALID,1.37383,
2014-03-01, 08:34:04,VALID,918.543,VALID,0,VALID,82.9656,VALID,199.411,VALID,21.4778,VALID,171,VALID,0.840234,
2014-03-01, 08:35:04,VALID,918.535,VALID,0,VALID,82.3786,VALID,199.841,VALID,21.4778,VALID,155,VALID,1.06719,
2014-03-01, 08:36:04,VALID,918.574,VALID,0,VALID,82.1347,VALID,196.725,VALID,21.5168,VALID,161,VALID,1.04688,
2014-03-01, 08:37:04,VALID,918.585,VALID,0,VALID,81.9975,VALID,191.245,VALID,21.5363,VALID,151,VALID,1.57148,
2014-03-01, 08:38:04,VALID,918.619,VALID,0,VALID,82.0966,VALID,193.072,VALID,21.5754,VALID,150,VALID,1.99023,
2014-03-01, 08:39:04,VALID,918.655,VALID,0,VALID,82.1499,VALID,195.65,VALID,21.5949,VALID,172,VALID,1.89961,
2014-03-01, 08:40:04,VALID,918.671,VALID,0,VALID,81.784,VALID,196.832,VALID,21.6729,VALID,170,VALID,1.02969,
2014-03-01, 08:41:04,VALID,918.666,VALID,0,VALID,81.0064,VALID,198.981,VALID,21.712,VALID,177,VALID,1.36445,
2014-03-01, 08:42:04,VALID,918.727,VALID,0,VALID,81.319,VALID,206.717,VALID,21.751,VALID,176,VALID,1.96367,
2014-03-01, 08:43:04,VALID,918.688,VALID,0,VALID,80.8844,VALID,211.659,VALID,21.79,VALID,166,VALID,1.87383,
2014-03-01, 08:44:04,VALID,918.757,VALID,0,VALID,81.0979,VALID,214.453,VALID,21.8095,VALID,156,VALID,1.22187,
2014-03-01, 08:45:04,VALID,918.81,VALID,0,VALID,80.4804,VALID,221.651,VALID,21.829,VALID,167,VALID,2.05859,
2014-03-01, 08:46:04,VALID,918.833,VALID,0,VALID,80.7396,VALID,222.296,VALID,21.8469,VALID,169,VALID,1.70195,
2014-03-01, 08:47:04,VALID,918.849,VALID,0,VALID,80.6405,VALID,225.949,VALID,21.8876,VALID,139,VALID,1.63711,
2014-03-01, 08:48:04,VALID,918.842,VALID,0,VALID,80.8387,VALID,229.924,VALID,21.9054,VALID,161,VALID,1.77773,
2014-03-01, 08:49:04,VALID,918.875,VALID,0,VALID,81.4181,VALID,228.742,VALID,22.0047,VALID,176,VALID,0.904688,
2014-03-01, 08:50:04,VALID,918.883,VALID,0,VALID,81.0064,VALID,221.973,VALID,22.0225,VALID,152,VALID,0.952344,
2014-03-01, 08:51:04,VALID,918.891,VALID,0,VALID,81.0445,VALID,230.461,VALID,22.0615,VALID,144,VALID,1.13125,
2014-03-01, 08:52:04,VALID,918.874,VALID,0,VALID,80.549,VALID,235.941,VALID,22.1217,VALID,145,VALID,0.950391,
2014-03-01, 08:53:04,VALID,918.887,VALID,0,VALID,80.8997,VALID,244.214,VALID,22.1608,VALID,170,VALID,1.28984,
2014-03-01, 08:54:04,VALID,918.889,VALID,0,VALID,79.8782,VALID,255.065,VALID,22.1803,VALID,175,VALID,1.18789,
2014-03-01, 08:55:04,VALID,918.877,VALID,0,VALID,81.1741,VALID,264.95,VALID,22.2371,VALID,147,VALID,1.15781,
2014-03-01, 08:56:04,VALID,918.882,VALID,0,VALID,79.7562,VALID,274.082,VALID,22.3347,VALID,149,VALID,0.921094,
2014-03-01, 08:57:04,VALID,918.864,VALID,0,VALID,79.6418,VALID,281.388,VALID,22.3542,VALID,153,VALID,1.28398,
2014-03-01, 08:58:04,VALID,918.869,VALID,0,VALID,79.3903,VALID,279.884,VALID,22.3933,VALID,159,VALID,1.72148,
2014-03-01, 08:59:04,VALID,918.842,VALID,0,VALID,78.8109,VALID,277.091,VALID,22.3933,VALID,158,VALID,2.0793,
2014-03-01, 09:00:04,VALID,918.799,VALID,0,VALID,78.5974,VALID,282.678,VALID,22.3933,VALID,143,VALID,1.51289,
2014-03-01, 09:01:04,VALID,918.805,VALID,0,VALID,78.6737,VALID,301.372,VALID,22.4128,VALID,145,VALID,1.84922,
2014-03-01, 09:02:04,VALID,918.794,VALID,0,VALID,77.7207,VALID,329.307,VALID,22.4925,VALID,130,VALID,1.31172,
2014-03-01, 09:03:04,VALID,918.77,VALID,0,VALID,77.3319,VALID,336.183,VALID,22.5103,VALID,86,VALID,1.47891,
2014-03-01, 09:04:04,VALID,918.792,VALID,0,VALID,78.4678,VALID,340.696,VALID,22.6487,VALID,168,VALID,1.04727,
2014-03-01, 09:05:04,VALID,918.779,VALID,0,VALID,78.4373,VALID,342.952,VALID,22.6665,VALID,139,VALID,2.12539,
2014-03-01, 09:06:04,VALID,918.809,VALID,0,VALID,78.7041,VALID,349.399,VALID,22.7445,VALID,133,VALID,1.09961,
2014-03-01, 09:07:04,VALID,918.809,VALID,0,VALID,78.1171,VALID,360.358,VALID,22.8439,VALID,149,VALID,2.03711,
2014-03-01, 09:08:04,VALID,918.78,VALID,0,VALID,76.7754,VALID,373.465,VALID,22.8812,VALID,158,VALID,1.19375,
2014-03-01, 09:09:04,VALID,918.802,VALID,0,VALID,76.6535,VALID,382.491,VALID,22.9397,VALID,101,VALID,1.67813,
2014-03-01, 09:10:04,VALID,918.788,VALID,0,VALID,78.1476,VALID,380.127,VALID,23.0178,VALID,81,VALID,1.74531,
2014-03-01, 09:11:04,VALID,918.785,VALID,0,VALID,77.3091,VALID,394.954,VALID,23.0746,VALID,61,VALID,1.98359,
2014-03-01, 09:12:04,VALID,918.842,VALID,0,VALID,76.5543,VALID,411.607,VALID,23.1154,VALID,162,VALID,1.56758,
2014-03-01, 09:13:04,VALID,918.832,VALID,0,VALID,77.8275,VALID,421.277,VALID,23.213,VALID,160,VALID,0.385547,
2014-03-01, 09:14:04,VALID,918.881,VALID,0,VALID,75.8606,VALID,424.178,VALID,23.2715,VALID,119,VALID,2.62578,
2014-03-01, 09:15:04,VALID,918.879,VALID,0,VALID,76.5772,VALID,431.699,VALID,23.2325,VALID,141,VALID,1.00195,
2014-03-01, 09:16:04,VALID,918.893,VALID,0,VALID,76.5467,VALID,432.988,VALID,23.2911,VALID,120,VALID,1.15977,
2014-03-01, 09:17:04,VALID,918.913,VALID,0,VALID,75.6167,VALID,432.451,VALID,23.3869,VALID,178,VALID,1.16797,
2014-03-01, 09:18:04,VALID,918.947,VALID,0,VALID,75.4794,VALID,427.938,VALID,23.504,VALID,156,VALID,1.4668,
2014-03-01, 09:19:04,VALID,918.934,VALID,0,VALID,74.0539,VALID,405.698,VALID,23.543,VALID,175,VALID,2.09297,
2014-03-01, 09:20:04,VALID,918.968,VALID,0,VALID,74.0462,VALID,406.665,VALID,23.4472,VALID,170,VALID,1.71641,
2014-03-01, 09:21:04,VALID,918.967,VALID,0,VALID,76.0436,VALID,389.582,VALID,23.4454,VALID,159,VALID,2.30586,
2014-03-01, 09:22:04,VALID,918.988,VALID,0,VALID,73.848,VALID,418.161,VALID,23.4259,VALID,147,VALID,1.52383,
2014-03-01, 09:23:04,VALID,918.993,VALID,0,VALID,74.8467,VALID,430.194,VALID,23.4259,VALID,144,VALID,2.58828,
2014-03-01, 09:24:04,VALID,918.965,VALID,0,VALID,74.8086,VALID,408.491,VALID,23.4454,VALID,155,VALID,1.8957,
2014-03-01, 09:25:04,VALID,918.983,VALID,0,VALID,75.266,VALID,442.765,VALID,23.4845,VALID,148,VALID,1.28945,
2014-03-01, 09:26:04,VALID,918.972,VALID,0,VALID,75.4947,VALID,447.492,VALID,23.6211,VALID,115,VALID,1.7,
2014-03-01, 09:27:04,VALID,918.982,VALID,0,VALID,74.031,VALID,478.113,VALID,23.6406,VALID,144,VALID,1.13008,
2014-03-01, 09:28:04,VALID,918.969,VALID,0,VALID,73.8785,VALID,484.452,VALID,23.6797,VALID,125,VALID,1.58398,
2014-03-01, 09:29:04,VALID,918.98,VALID,0,VALID,74.4427,VALID,488.32,VALID,23.6992,VALID,145,VALID,1.86055,
2014-03-01, 09:30:04,VALID,918.952,VALID,0,VALID,74.2978,VALID,492.94,VALID,23.7968,VALID,156,VALID,1.55703,
2014-03-01, 09:31:04,VALID,918.939,VALID,0,VALID,74.0386,VALID,490.791,VALID,23.7968,VALID,95,VALID,0.971484,
2014-03-01, 09:32:04,VALID,918.902,VALID,0,VALID,75.1821,VALID,491.436,VALID,23.9548,VALID,129,VALID,0.892578,
2014-03-01, 09:33:04,VALID,918.895,VALID,0,VALID,72.4834,VALID,493.692,VALID,24.1677,VALID,186,VALID,1.34609,
2014-03-01, 09:34:04,VALID,918.89,VALID,0,VALID,72.0489,VALID,503.899,VALID,24.402,VALID,102,VALID,1.39648,
2014-03-01, 09:35:04,VALID,918.869,VALID,0,VALID,72.1023,VALID,503.899,VALID,24.2458,VALID,138,VALID,1.18477,
2014-03-01, 09:36:04,VALID,918.872,VALID,0,VALID,71.5763,VALID,493.477,VALID,24.2849,VALID,139,VALID,2.09648,
2014-03-01, 09:37:04,VALID,918.869,VALID,0,VALID,70.9664,VALID,494.337,VALID,24.2672,VALID,165,VALID,1.56055,
2014-03-01, 09:38:04,VALID,918.918,VALID,0,VALID,70.974,VALID,499.816,VALID,24.2263,VALID,172,VALID,1.375,
2014-03-01, 09:39:04,VALID,918.877,VALID,0,VALID,71.4162,VALID,491.973,VALID,24.2068,VALID,135,VALID,1.52852,
2014-03-01, 09:40:04,VALID,918.886,VALID,0,VALID,70.7682,VALID,500.783,VALID,24.2654,VALID,175,VALID,0.872266,
2014-03-01, 09:41:04,VALID,918.881,VALID,0,VALID,70.8901,VALID,472.096,VALID,24.3825,VALID,156,VALID,1.32813,
2014-03-01, 09:42:04,VALID,918.895,VALID,0,VALID,71.3171,VALID,449.319,VALID,24.402,VALID,114,VALID,2.46094,
2014-03-01, 09:43:04,VALID,918.914,VALID,0,VALID,70.9206,VALID,442.013,VALID,24.2849,VALID,89,VALID,1.08555,
2014-03-01, 09:44:04,VALID,918.882,VALID,0,VALID,71.8278,VALID,486.816,VALID,24.2849,VALID,63,VALID,0.770312,
2014-03-01, 09:45:04,VALID,918.9,VALID,0,VALID,72.4606,VALID,490.361,VALID,24.4587,VALID,83,VALID,1.38555,
2014-03-01, 09:46:04,VALID,918.914,VALID,0,VALID,70.4404,VALID,438.467,VALID,24.5973,VALID,192,VALID,1.26523,
2014-03-01, 09:47:04,VALID,918.9,VALID,0,VALID,70.0363,VALID,466.832,VALID,24.7321,VALID,189,VALID,0.673828,
2014-03-01, 09:48:04,VALID,918.918,VALID,0,VALID,69.6475,VALID,439.327,VALID,24.7907,VALID,165,VALID,0.848437,
2014-03-01, 09:49:04,VALID,918.898,VALID,0,VALID,68.8318,VALID,428.26,VALID,24.7126,VALID,158,VALID,1.97539,
2014-03-01, 09:50:04,VALID,918.915,VALID,0,VALID,70.2117,VALID,369.275,VALID,24.6149,VALID,141,VALID,1.63906,
2014-03-01, 09:51:04,VALID,918.938,VALID,0,VALID,70.3413,VALID,321.571,VALID,24.4606,VALID,157,VALID,2.20859,
2014-03-01, 09:52:04,VALID,918.956,VALID,0,VALID,71.2866,VALID,298.579,VALID,24.3435,VALID,136,VALID,1.8332,
2014-03-01, 09:53:04,VALID,918.941,VALID,0,VALID,70.265,VALID,287.835,VALID,24.363,VALID,163,VALID,1.19375,
2014-03-01, 09:54:04,VALID,918.961,VALID,0,VALID,69.678,VALID,285.901,VALID,24.3044,VALID,147,VALID,2.02617,
2014-03-01, 09:55:04,VALID,918.965,VALID,0,VALID,70.3413,VALID,291.058,VALID,24.1482,VALID,163,VALID,2.42148,
2014-03-01, 09:56:04,VALID,918.965,VALID,0,VALID,70.791,VALID,283.967,VALID,24.0896,VALID,171,VALID,2.12031,
2014-03-01, 09:57:04,VALID,918.988,VALID,0,VALID,70.8978,VALID,272.901,VALID,24.0506,VALID,163,VALID,1.45195,
2014-03-01, 09:58:04,VALID,918.979,VALID,0,VALID,71.3094,VALID,261.189,VALID,24.0488,VALID,156,VALID,0.896484,
2014-03-01, 09:59:04,VALID,918.947,VALID,0,VALID,70.9359,VALID,260.867,VALID,24.0701,VALID,125,VALID,1.25469,
2014-03-01, 10:00:04,VALID,918.936,VALID,0,VALID,70.9664,VALID,260.222,VALID,24.0115,VALID,133,VALID,2.32031,
2014-03-01, 10:01:04,VALID,918.933,VALID,0,VALID,71.1189,VALID,265.702,VALID,23.9335,VALID,112,VALID,1.67656,
2014-03-01, 10:02:04,VALID,918.928,VALID,0,VALID,72.5673,VALID,215.097,VALID,23.8731,VALID,133,VALID,2.12227,
2014-03-01, 10:03:04,VALID,918.885,VALID,0,VALID,70.8901,VALID,225.949,VALID,23.8536,VALID,151,VALID,1.62617,
2014-03-01, 10:04:04,VALID,918.869,VALID,0,VALID,71.9727,VALID,222.403,VALID,23.8536,VALID,162,VALID,1.69727,
2014-03-01, 10:05:04,VALID,918.86,VALID,0,VALID,69.7924,VALID,243.032,VALID,23.8358,VALID,120,VALID,2.53398,
2014-03-01, 10:06:04,VALID,918.844,VALID,0,VALID,72.8875,VALID,275.049,VALID,23.7968,VALID,130,VALID,1.24258,
2014-03-01, 10:07:04,VALID,918.847,VALID,0,VALID,71.3552,VALID,309.323,VALID,23.7773,VALID,128,VALID,0.733203,
2014-03-01, 10:08:04,VALID,918.849,VALID,0,VALID,71.8812,VALID,335.109,VALID,23.7968,VALID,107,VALID,1.80938,
2014-03-01, 10:09:04,VALID,918.853,VALID,0,VALID,71.7363,VALID,309.108,VALID,23.8163,VALID,89,VALID,1.98945,
2014-03-01, 10:10:04,VALID,918.888,VALID,0,VALID,72.552,VALID,341.018,VALID,23.8944,VALID,92,VALID,0.705859,
2014-03-01, 10:11:04,VALID,918.88,VALID,0,VALID,71.6372,VALID,315.662,VALID,23.9707,VALID,67,VALID,1.67344,
2014-03-01, 10:12:04,VALID,918.878,VALID,0,VALID,72.4911,VALID,284.074,VALID,24.1092,VALID,115,VALID,0.996484,
2014-03-01, 10:13:04,VALID,918.885,VALID,0,VALID,71.035,VALID,341.448,VALID,24.1873,VALID,96,VALID,1.35039,
2014-03-01, 10:14:04,VALID,918.899,VALID,0,VALID,71.5229,VALID,352.837,VALID,24.2068,VALID,112,VALID,1.27852,
2014-03-01, 10:15:04,VALID,918.893,VALID,0,VALID,69.7543,VALID,350.688,VALID,24.2049,VALID,95,VALID,1.36992,
2014-03-01, 10:16:04,VALID,918.884,VALID,0,VALID,72.1175,VALID,374.432,VALID,24.2654,VALID,70,VALID,0.617578,
2014-03-01, 10:17:04,VALID,918.873,VALID,0,VALID,69.6704,VALID,374.432,VALID,24.2654,VALID,145,VALID,0.800781,
2014-03-01, 10:18:04,VALID,918.878,VALID,0,VALID,69.2587,VALID,386.788,VALID,24.3806,VALID,149,VALID,1.05234,
2014-03-01, 10:19:04,VALID,918.877,VALID,0,VALID,70.6462,VALID,416.12,VALID,24.4801,VALID,141,VALID,0.553125,
2014-03-01, 10:20:04,VALID,918.825,VALID,0,VALID,69.5256,VALID,436.963,VALID,24.5387,VALID,92,VALID,1.23203,
2014-03-01, 10:21:04,VALID,918.833,VALID,0,VALID,69.274,VALID,450.393,VALID,24.5759,VALID,131,VALID,1.94766,
2014-03-01, 10:22:04,VALID,918.796,VALID,0,VALID,68.5955,VALID,465.22,VALID,24.5387,VALID,81,VALID,1.8,
2014-03-01, 10:23:04,VALID,918.844,VALID,0,VALID,70.4404,VALID,476.394,VALID,24.5192,VALID,148,VALID,1.21289,
2014-03-01, 10:24:04,VALID,918.827,VALID,0,VALID,71.2332,VALID,488.213,VALID,24.5954,VALID,113,VALID,1.65508,
2014-03-01, 10:25:04,VALID,918.821,VALID,0,VALID,68.8394,VALID,494.767,VALID,24.6559,VALID,122,VALID,1.4168,
2014-03-01, 10:26:04,VALID,918.816,VALID,0,VALID,71.0426,VALID,498.527,VALID,24.773,VALID,95,VALID,1.69805,
2014-03-01, 10:27:04,VALID,918.83,VALID,0,VALID,69.4951,VALID,507.767,VALID,24.773,VALID,135,VALID,0.880469,
2014-03-01, 10:28:04,VALID,918.83,VALID,0,VALID,68.6412,VALID,517.544,VALID,24.8688,VALID,160,VALID,1.70313,
2014-03-01, 10:29:04,VALID,918.857,VALID,0,VALID,65.2488,VALID,512.494,VALID,24.8297,VALID,126,VALID,1.98086,
2014-03-01, 10:30:04,VALID,918.877,VALID,0,VALID,67.8865,VALID,509.916,VALID,24.8121,VALID,154,VALID,2.14844,
2014-03-01, 10:31:04,VALID,918.885,VALID,0,VALID,66.0721,VALID,505.403,VALID,24.8492,VALID,113,VALID,0.843359,
2014-03-01, 10:32:04,VALID,918.85,VALID,0,VALID,67.513,VALID,509.701,VALID,24.9469,VALID,83,VALID,1.49727,
2014-03-01, 10:33:04,VALID,918.88,VALID,0,VALID,65.0964,VALID,526.677,VALID,24.9097,VALID,138,VALID,2.31484,
2014-03-01, 10:34:04,VALID,918.862,VALID,0,VALID,66.7811,VALID,552.247,VALID,24.8316,VALID,157,VALID,1.45117,
2014-03-01, 10:35:04,VALID,918.87,VALID,0,VALID,66.5295,VALID,565.14,VALID,24.8902,VALID,113,VALID,1.97266,
2014-03-01, 10:36:04,VALID,918.853,VALID,0,VALID,67.3453,VALID,563.851,VALID,24.7321,VALID,110,VALID,1.70039,
2014-03-01, 10:37:04,VALID,918.839,VALID,0,VALID,66.4762,VALID,559.876,VALID,24.8121,VALID,133,VALID,1.98594,
2014-03-01, 10:38:04,VALID,918.809,VALID,0,VALID,67.8484,VALID,566.645,VALID,24.8492,VALID,74,VALID,1.74297,
2014-03-01, 10:39:04,VALID,918.785,VALID,0,VALID,69.335,VALID,565.355,VALID,25.064,VALID,90,VALID,1.9168,
2014-03-01, 10:40:04,VALID,918.803,VALID,0,VALID,64.2959,VALID,554.396,VALID,25.2222,VALID,97,VALID,1.30625,
2014-03-01, 10:41:04,VALID,918.759,VALID,0,VALID,67.0784,VALID,565.785,VALID,25.2984,VALID,95,VALID,1.50625,
2014-03-01, 10:42:04,VALID,918.761,VALID,0,VALID,64.2883,VALID,587.273,VALID,25.3179,VALID,123,VALID,2.03789,
2014-03-01, 10:43:04,VALID,918.749,VALID,0,VALID,67.1547,VALID,612.092,VALID,25.1422,VALID,65,VALID,1.83555,
2014-03-01, 10:44:04,VALID,918.725,VALID,0,VALID,67.452,VALID,605.646,VALID,25.2007,VALID,81,VALID,1.03984,
2014-03-01, 10:45:04,VALID,918.695,VALID,0,VALID,67.7493,VALID,602.423,VALID,25.3179,VALID,89,VALID,2.96406,
2014-03-01, 10:46:04,VALID,918.707,VALID,0,VALID,62.8779,VALID,616.82,VALID,25.3374,VALID,76,VALID,3.48438,
2014-03-01, 10:47:04,VALID,918.729,VALID,0,VALID,63.9452,VALID,649.374,VALID,25.2593,VALID,85,VALID,1.41211,
2014-03-01, 10:48:04,VALID,918.689,VALID,0,VALID,64.3493,VALID,669.788,VALID,25.3179,VALID,72,VALID,2.01719,
2014-03-01, 10:49:04,VALID,918.696,VALID,0,VALID,64.5932,VALID,680.962,VALID,25.3374,VALID,163,VALID,1.09141,
2014-03-01, 10:50:04,VALID,918.676,VALID,0,VALID,64.86,VALID,666.457,VALID,25.4741,VALID,82,VALID,1.78398,
2014-03-01, 10:51:04,VALID,918.673,VALID,0,VALID,62.169,VALID,655.606,VALID,25.6694,VALID,98,VALID,2.15469,
2014-03-01, 10:52:04,VALID,918.67,VALID,0,VALID,62.1003,VALID,674.086,VALID,25.6109,VALID,136,VALID,1.10586,
2014-03-01, 10:53:04,VALID,918.633,VALID,0,VALID,62.3214,VALID,698.475,VALID,25.687,VALID,236,VALID,1.08086,